Location: Sihaung
(22.8641°N, 94.0549°E)
Time: 02:55:00
(UTC+00:00)

Hubble Space Telescope - Pass Details

Date: 03 March 2021
Orbit: 535 x 539 km, 28.5° (Epoch: 13 April)

Event Time Altitude Azimuth Distance (km) Brightness Sun altitude
Rises 12:40:40 0° 241° (WSW) 2,660 5.5 -12.9°
Reaches altitude 10° 12:42:56 10° 237° (WSW) 1,771 4.3 -13.4°
Maximum altitude 12:46:58 57° 158° (SSE) 624 0.9 -14.4°
Enters shadow 12:49:00 27° 89° (E) 1,048 1.6 -14.8°
